CW2840 Weather Reports


time (UTC)temp
C
wind
direction
speed
KPH
gust
KPH
rain 1hr
cm
rain 24hr
cm
rain mn
cm
humidity
%
barometer
mb
20260901145717 29 347 6.4 14.5 0.00 0.00 0.00 72 1016.2
20260901144215 29 0 3.2 11.3 0.00 0.00 0.00 72 1016.2
20260901142716 28 358 6.4 17.7 0.00 0.00 0.00 74 1016.1
20260901141215 27 3 6.4 14.5 0.00 0.00 0.00 79 1016.3
20260901135716 27 338 0.0 11.3 0.00 0.00 0.00 80 1016.3
20260901134214 26 14 4.8 8.0 0.00 0.00 0.00 81 1016.5
20260901132717 26 0 6.4 11.3 0.00 0.00 0.00 83 1016.2
20260901131212 26 6 1.6 11.3 0.00 0.00 0.00 84 1016.0
20260901125714 26 47 4.8 8.0 0.00 0.00 0.00 85 1015.9
20260901124209 26 111 4.8 8.0 0.00 0.00 0.00 85 1015.7
20260901122710 26 111 3.2 8.0 0.00 0.00 0.00 85 1015.7
20260901121204 26 121 1.6 8.0 0.00 0.00 0.00 84 1015.3
20260901115704 26 123 3.2 4.8 0.00 0.00 0.00 84 1015.3
20260901114205 26 123 3.2 8.0 0.00 0.00 0.00 84 1015.3
20260901112704 26 127 1.6 3.2 0.00 0.00 0.00 84 1015.3
20260901111204 26 127 1.6 3.2 0.00 0.00 0.00 84 1015.3
20260901105703 26 127 0.0 4.8 0.00 0.00 0.00 85 1015.2
20260901104203 26 127 0.0 3.2 0.00 0.00 0.00 85 1015.1
20260901102703 26 127 0.0 0.0 0.00 0.00 0.00 85 1014.9
20260901101202 26 127 0.0 3.2 0.00 0.00 0.00 85 1015.0
20260901095703 26 127 0.0 0.0 0.00 0.00 0.00 84 1015.0
20260901094202 26 127 0.0 3.2 0.00 0.00 0.00 84 1015.1
20260901092704 26 127 0.0 0.0 0.00 0.00 0.00 84 1015.0
20260901091202 26 127 0.0 0.0 0.00 0.00 0.00 84 1015.1
20260901085704 26 127 0.0 3.2 0.00 0.00 0.00 83 1015.1
20260901085559 26 127 0.0 3.2 0.00 0.00 0.00 83 1015.2
20260901082704 26 127 1.6 3.2 0.00 0.00 0.00 83 1015.1
20260901081202 26 127 0.0 3.2 0.00 0.00 0.00 83 1015.1
20260901075704 26 127 0.0 3.2 0.00 0.00 0.00 83 1015.3
20260901074202 26 127 3.2 3.2 0.00 0.00 0.00 83 1015.4
20260901072705 27 127 0.0 3.2 0.00 0.00 0.00 82 1015.3
20260901071202 27 127 0.0 3.2 0.00 0.00 0.00 82 1015.3
20260901065705 27 127 0.0 3.2 0.00 0.00 0.00 81 1015.3
20260901064202 27 127 0.0 3.2 0.00 0.00 0.00 80 1015.5
20260901062703 27 127 0.0 3.2 0.00 0.00 0.00 79 1015.5
20260901061203 27 127 0.0 3.2 0.00 0.00 0.00 79 1015.5
20260901060402 28 127 1.6 4.8 0.00 0.00 0.00 78 1015.6
20260901054203 28 127 1.6 3.2 0.00 0.00 0.00 77 1015.5
20260901052703 28 127 0.0 4.8 0.00 0.00 0.00 77 1015.3
20260901051202 28 127 0.0 4.8 0.00 0.00 0.00 76 1015.4
20260901045703 28 127 1.6 4.8 0.00 0.00 0.00 76 1015.2
20260901044201 28 127 3.2 8.0 0.00 0.00 0.00 75 1015.2
20260901042705 28 130 4.8 11.3 0.00 0.00 0.00 74 1015.3
20260901041202 29 120 6.4 8.0 0.00 0.00 0.00 73 1015.3
20260901035703 29 133 3.2 14.5 0.00 0.00 0.00 72 1015.2
20260901034201 30 121 8.0 35.4 0.00 0.00 0.00 70 1015.2
20260901033403 30 137 4.8 11.3 0.00 0.00 0.00 68 1014.8
20260901031201 30 157 3.2 8.0 0.00 0.00 0.00 68 1014.6
20260901025702 30 157 3.2 11.3 0.00 0.00 0.00 66 1014.3
20260901024902 30 154 6.4 14.5 0.00 0.00 0.00 66 1014.2
20260901022701 30 147 3.2 4.8 0.00 0.00 0.00 66 1014.0
20260901021159 31 147 3.2 8.0 0.00 0.00 0.00 65 1013.8
20260901015701 31 147 4.8 8.0 0.00 0.00 0.00 64 1013.7
20260901014159 31 149 3.2 11.3 0.00 0.00 0.00 63 1013.6
20260901012700 31 144 4.8 8.0 0.00 0.00 0.00 61 1013.5
20260901011159 32 133 3.2 14.5 0.00 0.00 0.00 59 1013.5
20260901005700 32 159 4.8 14.5 0.00 0.00 0.00 58 1013.4
20260901004907 32 151 4.8 14.5 0.00 0.00 0.00 57 1013.4
20260901002659 32 118 4.8 14.5 0.00 0.00 0.00 55 1013.6
20260901001158 33 199 4.8 20.9 0.00 0.00 0.00 54 1013.6
20260831235658 33 151 6.4 17.7 0.00 0.00 0.00 54 1013.7
20260831234156 33 124 3.2 22.5 0.00 0.00 0.00 54 1013.6
20260831232657 33 158 9.7 17.7 0.00 0.00 0.00 53 1013.6
20260831231155 33 165 8.0 20.9 0.00 0.00 0.00 52 1013.6
20260831225657 34 123 6.4 22.5 0.00 0.00 0.00 50 1013.5
20260831224154 34 117 9.7 20.9 0.00 0.00 0.00 50 1013.6
20260831222656 35 165 12.9 29.0 0.00 0.00 0.00 50 1013.5
20260831221154 35 166 6.4 25.7 0.00 0.00 0.00 50 1013.5
20260831215653 35 144 6.4 25.7 0.00 0.00 0.00 49 1013.5
20260831214851 35 166 9.7 32.2 0.00 0.00 0.00 51 1013.7
20260831212655 34 159 14.5 35.4 0.00 0.00 0.00 53 1013.9
20260831211153 34 179 20.9 38.6 0.00 0.00 0.00 52 1013.9
20260831210358 34 138 11.3 29.0 0.00 0.00 0.00 52 1014.1
20260831204152 35 121 6.4 17.7 0.00 0.00 0.00 47 1014.2
20260831203404 36 113 8.0 17.7 0.00 0.00 0.00 45 1014.3
20260831201152 36 109 3.2 14.5 0.00 0.00 0.00 47 1014.5
20260831195653 34 0 4.8 17.7 0.00 0.00 0.00 47 1014.7
20260831194841 36 161 6.4 20.9 0.00 0.00 0.00 44 1014.9
20260831192652 36 172 8.0 14.5 0.00 0.00 0.00 45 1015.0
20260831191151 35 186 3.2 17.7 0.00 0.00 0.00 46 1015.4
20260831185652 35 172 4.8 14.5 0.00 0.00 0.00 45 1015.5
20260831184149 34 58 3.2 25.7 0.00 0.00 0.00 49 1015.7
20260831182651 35 166 8.0 17.7 0.00 0.00 0.00 49 1015.8
20260831181149 34 175 8.0 17.7 0.00 0.00 0.00 53 1016.2
20260831175650 33 125 3.2 14.5 0.00 0.00 0.00 51 1016.3
20260831174149 33 85 3.2 17.7 0.00 0.00 0.00 56 1016.5
20260831172650 33 90 4.8 11.3 0.00 0.00 0.00 55 1016.7
20260831171848 33 186 4.8 11.3 0.00 0.00 0.00 54 1016.8
20260831165649 33 117 8.0 17.7 0.00 0.00 0.00 54 1016.9
20260831164837 32 20 1.6 14.5 0.00 0.00 0.00 59 1017.0
20260831162647 32 348 8.0 14.5 0.00 0.00 0.00 60 1017.0
20260831161147 32 164 8.0 11.3 0.00 0.00 0.00 62 1017.1
20260831155646 31 172 6.4 11.3 0.00 0.00 0.00 65 1017.2
20260831154146 31 155 4.8 11.3 0.00 0.00 0.00 59 1017.1
20260831152645 31 350 4.8 11.3 0.00 0.00 0.00 63 1016.9
20260831151145 30 99 1.6 14.5 0.00 0.00 0.00 70 1016.9